This is the latest recevied weather packets stored in our database for station/object KC5TIL-3. If no packets are shown the sender has not sent any weather packets the latest 10 day(s).
| Time | Temp. | Humidity | Pressure | Rain* | Wind** | Luminosity | Snow |
|---|---|---|---|---|---|---|---|
| 1788047165 | 37.22° C | 10% | 1010.8 hPa | 0 mm | 1.79 m/s, 174° | - | - |
| 1788046864 | 37.22° C | 10% | 1010.8 hPa | 0 mm | 1.34 m/s, 190° | - | - |
| 1788046566 | 37.22° C | 10% | 1010.8 hPa | 0 mm | 2.68 m/s, 147° | - | - |
| 1788046268 | 37.22° C | 10% | 1010.8 hPa | 0 mm | 1.79 m/s, 131° | - | - |
| 1788045962 | 37.22° C | 10% | 1010.8 hPa | 0 mm | 2.24 m/s, 131° | - | - |
| 1788045659 | 37.22° C | 10% | 1010.8 hPa | 0 mm | 3.13 m/s, 213° | - | - |
| 1788045361 | 37.22° C | 10% | 1010.8 hPa | 0 mm | 2.24 m/s, 184° | - | - |
| 1788045059 | 37.22° C | 10% | 1010.8 hPa | 0 mm | 2.68 m/s, 108° | - | - |
| 1788044761 | 37.22° C | 10% | 1010.8 hPa | 0 mm | 2.24 m/s, 203° | - | - |
| 1788044463 | 37.22° C | 10% | 1010.8 hPa | 0 mm | 3.58 m/s, 145° | - | - |
| 1788044161 | 37.22° C | 10% | 1010.8 hPa | 0 mm | 2.24 m/s, 130° | - | - |
| 1788043863 | 37.22° C | 10% | 1010.8 hPa | 0 mm | 4.02 m/s, 120° | - | - |
| 1788043565 | 37.78° C | 10% | 1010.8 hPa | 0 mm | 3.13 m/s, 194° | - | - |
| 1788043264 | 37.78° C | 10% | 1010.8 hPa | 0 mm | 1.79 m/s, 112° | - | - |
| 1788042966 | 37.78° C | 10% | 1010.8 hPa | 0 mm | 3.13 m/s, 127° | - | - |
| 1788042668 | 37.22° C | 10% | 1010.8 hPa | 0 mm | 4.02 m/s, 127° | - | - |
| 1788042366 | 37.22° C | 10% | 1010.8 hPa | 0 mm | 4.47 m/s, 116° | - | - |
| 1788042064 | 38.33° C | 10% | 1010.8 hPa | 0 mm | 1.34 m/s, 157° | - | - |
| 1788041765 | 37.78° C | 10% | 1010.8 hPa | 0 mm | 1.79 m/s, 206° | - | - |
| 1788041459 | 38.33° C | 10% | 1010.8 hPa | 0 mm | 1.79 m/s, 218° | - | - |
| 1788041161 | 37.78° C | 10% | 1010.8 hPa | 0 mm | 2.24 m/s, 185° | - | - |
| 1788040863 | 37.78° C | 10% | 1011.8 hPa | 0 mm | 2.24 m/s, 213° | - | - |
| 1788040548 | 37.78° C | 10% | 1011.8 hPa | 0 mm | 3.58 m/s, 124° | - | - |
| 1788040250 | 37.22° C | 10% | 1011.8 hPa | 0 mm | 2.68 m/s, 134° | - | - |
| 1788039952 | 37.22° C | 10% | 1011.8 hPa | 0 mm | 3.13 m/s, 133° | - | - |
* Rain latest hour (hover to see other rain measurements)
** Current wind speed in m/s (hover to see current wind gust speed)